Showing default

YAOGAN-43 02D, 60948

Orbit data source: Space-Track

YAOGAN-43 02D, 60948 is a payload satellite owned by PLA GAD (CN) in LEO that was launched on Tue, 03 Sep 2024 UTC via a CHANG ZHENG 4B launch vehicle from the Xichang Space Center, China (XSC). Payload-class satellites include a variety of spacecraft equipped with specific instruments for various scientific and technological missions. These include communications satellites like Starlink; space stations such as the ISS; scientific satellites like the Hubble; Earth observation satellites from companies like Planet Labs, Umbra, and HawkEye 360; GPS; miniature CubeSats for education and research; and military/defense satellites.

Loading next visibility...
Identifier
60948, 2024-156D
Orbit
LEO
Country
Flag of CNCN / PRC
Related business
Manufacturer
SAST
Mission
Operational Defense Communications
Bus & Motor
Unknown
Mass
~300 kg wet, ~300 kg dry
Launch date (UTC)
2024-09-03 (2 years ago)
Launch vehicle
CHANG ZHENG 4B
Launch site
Xichang Space Center, China (XSC)
Object type
Payload
Rocket body
Debris
Shape & HBR
Box + 2 Pan, 2.5 m
Radar Cross Section
11.063 m², Large (>1 m²)

Expand to show TLE details & history
Last TLE update: 16 hours ago

TLE from 16 hours ago
0 YAOGAN-43 02D
1 60948U 24156D   26126.36249744  .00007171  00000-0  29834-3 0  9996
2 60948  34.9910 100.9944 0004347 240.7430 119.2850 15.23059563 93063
Epoch: 2026-05-06T08:41Z
TLE epoch observation values (Epoch: 2026-05-06T08:41:59.778Z)
Latitude
-0.00004°
Longitude
106.2712°
Altitude
496.987 km
Speed
7.618 km/s
True Right ascension
06h 43m 58s
True Declination
0° 00' 00"
Sunlit
Object was in daylight at epoch
Visualization orbit readout
Latitude
Unknown
Longitude
Unknown
Altitude
Unknown
Speed
Unknown
Apparent Right ascension
Unknown
Apparent Declination
Unknown
Sunlit
N/A
Visualization observer readout
Local Sidereal Time
09:10:30
Azimuth
Unknown
Elevation
Unknown
Doppler factor
Unknown
Orbital elements
Apogee altitude
502.86 km
Perigee altitude
496.88 km
Semi-major axis
6,878.007 km
Eccentricity
0.00043
Inclination
34.991°
RAAN
100.9944°
Arg. of periapsis
240.743°
True anomaly
119.32844°
Mean anomaly
119.285°
Eccentric anomaly
119.30672°
Mean motion
3.80495 °/min
Orbital period
94.61 mins
BSTAR
0.00029834
Loading maneuver chart data...
Computing Atmospheric mass density...
Loading historical data...
Loading historical data...
Loading historical data...
Loading historical data...
Loading historical data...
Loading historical data...
Loading historical data...

Documentation

Showing up to 5 results
|